This demonstration page uses our WeatherBlox Daily Observations layout. Learn more.

39.92423, -83.80882

Hourly Observations for April 8, 2015

Temp ( °F °C ) Dew Point ( °F °C ) Humidity (%) Winds ( mph kmh ) Pressure ( in mb ) Visibility ( mi km ) Precip ( " mm )
12:10 am 00:10 Cloudy with Mist and Fog 59 15 59 15 100 100 SSE 3 6 30.06 1018 6 9.65604 0 0
12:56 am 00:56 Cloudy with Mist and Fog 60 15.5 60 15.5 100 100 NW 3 6 30.06 1018 6 9.65604 0 0
1:03 am 01:03 Cloudy with Mist and Fog 61 16 61 16 100 100 W 5 7 30.06 1018 6 9.65604 0 0
1:56 am 01:56 Cloudy with Mist and Fog 57 13.8 57 13.8 100 100 NW 3 6 30.05 1018 2.5 4.02335 0 0
2:10 am 02:10 Cloudy with Mist and Fog 57 14 57 14 100 100 Calm 30.06 1018 2 3.21868 0 0
2:26 am 02:26 Cloudy with Mist and Fog 55 13 55 13 100 100 Calm 30.06 1018 3 4.82802 0 0
2:35 am 02:35 Cloudy with Mist and Fog 55 13 55 13 100 100 Calm 30.06 1018 2.5 4.02335 0 0
2:56 am 02:56 Cloudy with Mist and Fog 56 13.3 56 13.3 100 100 Calm 30.04 1017 2 3.21868 0 0
3:08 am 03:08 Cloudy with Mist and Fog 55 13 55 13 100 100 W 3 6 30.06 1018 1.5 2.41401 0 0
3:29 am 03:29 Cloudy with Mist and Fog 55 13 55 13 100 100 Calm 30.03 1017 1 1.60934 0 0
3:33 am 03:33 Cloudy with Fog 55 13 55 13 100 100 Calm 30.03 1017 0.5 0.80467 0 0
3:42 am 03:42 Cloudy with Fog 55 13 55 13 100 100 Calm 30.03 1017 0.25 0.402335 0 0
3:56 am 03:56 Cloudy with Fog 55 12.7 55 12.7 100 100 Calm 30.04 1017 5 8.0467 0 0
4:41 am 04:41 Cloudy with Fog 57 14 57 14 100 100 S 7 11 30.03 1017 0.25 0.402335 0 0
4:56 am 04:56 Cloudy with Fog 58 14.4 58 14.4 100 100 S 7 11 30.03 1017 0.25 0.402335 0 0
5:06 am 05:06 Cloudy with Mist and Fog 57 14 57 14 100 100 S 6 9 30.03 1017 0.75 1.207005 0 0
5:10 am 05:10 Cloudy with Mist and Fog 57 14 57 14 100 100 S 7 11 30.03 1017 1.25 2.011675 0 0
5:13 am 05:13 Cloudy with Mist and Fog 57 14 57 14 100 100 S 7 11 30.03 1017 2 3.21868 0 0
5:23 am 05:23 Cloudy with Mist and Fog 57 14 57 14 100 100 S 6 9 30.03 1017 3 4.82802 0 0
5:38 am 05:38 Mostly Cloudy with Mist and Fog 57 14 57 14 100 100 S 6 9 30.03 1017 4 6.43736 0 0
5:56 am 05:56 Mostly Cloudy with Mist and Fog 57 13.8 57 13.8 100 100 SSE 6 9 30 1016 4 6.43736 0 0
6:14 am 06:14 Mostly Cloudy with Mist and Fog 57 14 57 14 100 100 SSE 8 13 30 1016 4 6.43736 0 0
6:56 am 06:56 Partly Cloudy with Mist and Fog 56 13.3 56 13.3 100 100 S 7 11 30 1016 5 8.0467 0 0
7:06 am 07:06 Mostly Cloudy with Mist and Fog 55 13 55 13 100 100 S 7 11 30 1016 6 9.65604 0 0
7:18 am 07:18 Cloudy with Mist and Fog 57 14 57 14 100 100 S 6 9 30 1016 6 9.65604 0 0
7:30 am 07:30 Cloudy with Mist and Fog 57 14 57 14 100 100 S 7 11 30.03 1017 5 8.0467 0 0
7:56 am 07:56 Mostly Cloudy with Mist and Fog 57 13.8 57 13.8 100 100 S 7 11 30 1016 4 6.43736 0 0
8:49 am 08:49 Cloudy with Mist and Fog 61 16 61 16 100 100 S 7 11 30 1016 4 6.43736 0 0
8:56 am 08:56 Cloudy with Mist and Fog 60 15.5 60 15.5 100 100 S 8 13 30 1016 4 6.43736 0 0
9:56 am 09:56 Cloudy with Mist and Fog 62 16.6 62 16.6 100 100 SSW 10 17 30 1016 4 6.43736 0 0
10:29 am 10:29 Cloudy with Nearby Thunderstorms 63 17 61 16 94 94 SW 10 17 30.03 1017 4 6.43736 0 0
10:56 am 10:56 Cloudy with Mist and Fog 61 16.1 61 16.1 100 100 SSW 8 13 30.01 1016 3 4.82802 0 0.0254
11:09 am 11:09 Cloudy with Heavy Thunderstorms 61 16 61 16 100 100 W 28 44 30.06 1018 1.75 2.816345 0.03 0.762
11:18 am 11:18 Cloudy with Heavy Thunderstorms 59 15 57 14 94 94 W 24 39 30.06 1018 1.25 2.011675 0.15 3.81
11:26 am 11:26 Cloudy with Thunderstorms 57 14 57 14 100 100 WNW 20 31 30.09 1019 1.75 2.816345 0.17 4.318
11:33 am 11:33 Mostly Cloudy with Thunderstorms 57 14 57 14 100 100 NW 18 30 30.06 1018 2.5 4.02335 0.19 4.826
11:48 am 11:48 Cloudy with Thunderstorms 57 14 57 14 100 100 NW 15 24 30.06 1018 1.5 2.41401 0.25 6.35
11:56 am 11:56 Cloudy with Thunderstorms 58 14.4 58 14.4 100 100 N 12 19 30.01 1016 2.5 4.02335 0.28 7.112
12:07 pm 12:07 Cloudy with Mist and Fog 57 14 57 14 100 100 NNW 5 7 30 1016 4 6.43736 0.02 0.508
12:19 pm 12:19 Mostly Cloudy with Light Rain 57 14 57 14 100 100 ENE 9 15 29.97 1015 5 8.0467 0.02 0.508
12:56 pm 12:56 Sunny with Mist and Fog 58 14.4 58 14.4 100 100 SE 3 6 29.98 1015 6 9.65604 0.02 0.508
1:56 pm 13:56 Partly Cloudy with Mist and Fog 62 16.6 60 15.5 93 93 SSW 10 17 29.99 1016 6 9.65604 0 0
2:56 pm 14:56 Hazy 65 18.3 60 15.5 84 84 SSW 12 19 29.98 1015 6 9.65604 0 0
3:56 pm 15:56 Hazy 69 20.5 61 16.1 76 76 SSW 9 15 29.96 1015 6 9.65604 0 0
4:56 pm 16:56 Cloudy with Haze 69 20.5 60 15.5 73 73 S 8 13 29.95 1014 6 9.65604 0 0
5:56 pm 17:56 Mostly Cloudy with Haze 69 20.5 60 15.5 73 73 S 5 7 29.96 1014 6 9.65604 0 0
6:21 pm 18:21 Cloudy with Haze 70 21 63 17 78 78 SSE 5 7 29.94 1014 6 9.65604 0 0
6:45 pm 18:45 Cloudy with Nearby Thunderstorms 68 20 63 17 83 83 SE 5 7 29.94 1014 6 9.65604 0 0
6:56 pm 18:56 Cloudy 67 19.4 62 16.6 84 84 E 6 9 29.96 1015 5 8.0467 0 0.0254
7:17 pm 19:17 Cloudy with Light Thunderstorms 64 18 63 17 94 94 E 7 11 29.94 1014 2.5 4.02335 0.03 0.762
7:32 pm 19:32 Mostly Cloudy with Light Thunderstorms 64 18 63 17 94 94 ESE 8 13 29.91 1013 6 9.65604 0.04 1.016
7:48 pm 19:48 Mostly Cloudy with Thunderstorms 64 18 63 17 94 94 VRB 5 7 29.94 1014 1.75 2.816345 0.1 2.54
7:56 pm 19:56 Cloudy with Thunderstorms 64 17.7 64 17.7 100 100 NW 9 15 29.97 1015 1.75 2.816345 0.16 4.064
8:03 pm 20:03 Cloudy with Light Thunderstorms 64 18 64 18 100 100 NNW 7 11 29.94 1014 3 4.82802 0 0.0254
8:43 pm 20:43 Cloudy with Thunderstorms 63 17 61 16 94 94 WNW 10 17 30.03 1017 4 6.43736 0.02 0.508
8:56 pm 20:56 Mostly Cloudy with Light Thunderstorms 62 16.6 61 16.1 97 97 WNW 6 9 30 1016 3 4.82802 0.06 1.524
9:04 pm 21:04 Cloudy with Light Rain 63 17 61 16 94 94 Calm 29.97 1015 4 6.43736 0.02 0.508
9:56 pm 21:56 Mostly Clear 60 15.5 60 15.5 100 100 SE 8 13 29.98 1015 7 11.26538 0.02 0.508
10:56 pm 22:56 Mostly Clear 62 16.6 61 16.1 97 97 ESE 12 19 29.98 1015 7 11.26538 0 0
11:56 pm 23:56 Clear with Mist and Fog 60 15.5 60 15.5 100 100 SE 6 9 29.97 1015 5 8.0467 0 0

Powered by AerisWeather